Weather observations for the past three days for
MANDAN
Metric (Imperial)
Date Time (cdt) Wind (kph) Vis. (km) Weather Sky Cond. Temperature (ºC) Relative Humidity Wind Chill (°C) Heat Index (°C) Pressure Precipitation (cm)
Air Dwpt 6 hour altimeter (cm) sea level (mb) 1 hr 3 hr 6 hr
Max. Min.
01 17:55 SE 9 16.09 Fair CLR 23 15 61% 76.1 0.0
01 17:35 SE 7 16.09 Fair CLR 23 14 57% 76.1 0.0
01 17:15 SE 9 16.09 Fair CLR 23 15 61% 76.1 0.0
01 16:55 SE 9 16.09 Fair CLR 23 15 61% 76.12 0.0
01 16:35 SE 7 16.09 Fair CLR 24 15 57% 25 76.12 0.0
01 16:15 SE 9 16.09 Fair CLR 24 15 57% 25 76.15 0.0
01 15:55 E 7 16.09 Fair CLR 24 14 54% 25 76.15 0.0
01 15:35 E 9 16.09 Fair CLR 24 14 54% 25 76.15 0.0
01 15:15 E 9 16.09 Fair CLR 24 14 54% 25 76.15 0.0
01 14:55 SE 6 16.09 Fair CLR 24 14 54% 25 76.17 0.0
01 14:35 SW 7 16.09 Fair CLR 24 14 54% 25 76.2 0.0
01 14:15 SE 6 16.09 Fair CLR 25 13 47% 26 76.2 0.0
01 13:55 S 7 16.09 Fair CLR 25 13 47% 26 76.2 0.0
01 13:35 Vrbl 7 16.09 Fair CLR 24 13 50% 25 76.2 0.0
01 13:15 Calm 16.09 Fair CLR 24 13 50% 25 76.23 0.0
01 12:55 Vrbl 6 16.09 Fair CLR 23 13 53% 76.23 0.0
01 12:35 Calm 16.09 Fair CLR 23 13 53% 76.23 0.0
01 12:15 Calm 16.09 Fair CLR 23 12 50% 76.25 0.0
01 11:55 SE 6 16.09 Fair CLR 22 14 61% 76.25 0.0
01 11:35 SE 6 16.09 Fair CLR 22 14 61% 76.25 0.0
01 11:15 SE 9 16.09 Fair CLR 21 14 64% 76.28 0.0
01 10:55 Calm 16.09 Fair CLR 21 14 64% 76.25 0.0
01 10:35 Calm 16.09 Fair CLR 21 15 69% 76.25 0.0
01 10:15 E 6 16.09 Fair CLR 19 14 73% 76.23 0.0
01 09:55 Calm 16.09 Fair CLR 18 13 73% 76.25 0.0
01 09:35 Calm 16.09 Fair CLR 18 13 73% 76.25 0.0
01 09:15 Calm 16.09 Fair CLR 15 13 88% 76.25 0.0
01 08:55 Calm 16.09 Fair CLR 14 12 88% 76.28 0.0
01 08:35 S 13 16.09 Fair CLR 15 12 82% 76.28 0.0
01 08:15 Calm 16.09 Fair CLR 14 12 88% 76.25 0.0
01 07:55 Calm 16.09 Fair CLR 12 12 100% 76.25 0.0
01 07:35 Calm 16.09 Fair CLR 12 10 88% 76.23 0.0
01 07:15 NW 7 16.09 Fair CLR 10 10 100% 9 76.2 0.0
01 06:55 W 7 16.09 Fair CLR 9 9 100% 8 76.2 0.0
01 06:35 W 11 16.09 Fair CLR 10 10 100% 9 76.2 0.0
01 06:15 W 9 16.09 Fair CLR 10 9 94% 9 76.2 0.0
01 05:55 Calm 16.09 Fair CLR 11 10 94% 76.2 0.0
01 05:35 W 9 16.09 Fair CLR 11 10 94% 76.2 0.0
01 05:15 W 9 16.09 Fair CLR 11 10 94% 76.17 0.0
01 04:55 W 7 16.09 Fair CLR 11 10 94% 76.17 0.0
01 04:35 W 9 16.09 Fair CLR 12 10 88% 76.17 0.0
01 04:15 W 11 16.09 Fair CLR 13 10 82% 76.17 0.0
01 03:55 W 9 16.09 Fair CLR 12 10 88% 76.15 0.0
01 03:35 W 9 16.09 Fair CLR 12 10 88% 76.15 0.0
01 03:15 W 9 16.09 Fair CLR 12 10 88% 76.15 0.0
01 02:55 W 9 16.09 Fair CLR 11 10 94% 76.15 0.0
01 02:35 Calm 16.09 Fair CLR 12 10 88% 76.15 0.0
01 02:15 Calm 16.09 Fair CLR 14 10 77% 76.17 0.0
01 01:55 NW 15 16.09 Fair CLR 16 10 68% 76.15 0.0
01 01:35 W 11 16.09 Fair CLR 14 10 77% 76.15 0.0
01 01:15 W 11 16.09 Fair CLR 14 10 77% 76.15 0.0
01 00:55 W 13 16.09 Fair CLR 13 10 82% 76.15 0.0
01 00:35 NW 11 16.09 Fair CLR 15 10 72% 76.12 0.0
01 00:15 W 13 16.09 Fair CLR 15 10 72% 76.12 0.0
31 23:55 W 15 16.09 Fair CLR 16 10 68% 76.12 0.0
31 23:35 W 17 16.09 Fair CLR 16 10 68% 76.1 0.0
31 23:15 SW 15 16.09 Fair CLR 16 11 72% 76.1 0.0
31 22:55 SW 11 16.09 Fair CLR 16 11 72% 76.07 0.0
31 22:35 W 15 16.09 Fair CLR 18 10 60% 76.05 0.0
31 22:15 W 19 16.09 Fair CLR 17 11 68% 76.05 0.0
31 21:55 SW 15 16.09 Fair CLR 17 11 68% 76.05 0.0
31 21:35 SW 15 16.09 Fair CLR 18 11 64% 76.02 0.0
31 21:15 SW 15 16.09 Fair CLR 19 11 60% 76.02 0.0
31 20:55 SW 15 16.09 Fair CLR 20 11 56% 76 0.0
31 20:35 SW 15 16.09 Fair CLR 20 12 60% 75.97 0.0
31 20:15 W 15 16.09 Fair CLR 21 12 57% 75.97 0.0
31 19:55 W 15 16.09 Fair CLR 23 12 50% 75.95 0.0
31 19:35 W 19 16.09 Fair CLR 24 12 47% 25 75.95 0.0
31 19:15 W 22 16.09 Fair CLR 25 11 42% 26 75.95 0.0
31 18:55 W 24 G 37 16.09 Fair CLR 25 12 44% 26 75.92 0.0
31 18:35 W 28 G 41 16.09 Fair CLR 26 11 39% 26 75.92 0.0
31 18:15 W 39 16.09 Fair and Breezy CLR 26 11 39% 26 75.92 0.0
31 17:55 W 33 G 44 16.09 Fair and Breezy CLR 26 11 39% 26 75.92 0.0
31 17:35 W 39 G 54 16.09 Fair and Breezy CLR 26 11 39% 26 75.9 0.0
31 17:15 W 30 G 52 16.09 Fair CLR 26 11 39% 26 75.9 0.0
31 16:55 W 28 G 52 16.09 Fair CLR 26 11 39% 26 75.9 0.0
31 16:35 W 39 G 50 16.09 Fair and Breezy CLR 26 10 37% 26 75.9 0.0
31 16:15 W 35 G 44 16.09 Fair and Breezy CLR 27 11 37% 27 75.92 0.0
31 15:55 W 39 G 56 16.09 Fair and Breezy CLR 26 11 39% 26 75.92 0.0
31 15:35 W 43 G 57 16.09 Fair and Windy CLR 26 10 37% 26 75.95 0.0
31 15:15 W 46 G 57 16.09 Fair and Windy CLR 26 10 37% 26 75.95 0.0
31 14:55 W 35 G 46 16.09 Fair and Breezy CLR 26 11 39% 26 75.95 0.0
31 14:35 W 41 G 56 16.09 Fair and Breezy CLR 26 11 39% 26 75.95 0.0
31 14:15 W 43 G 56 16.09 Fair and Windy CLR 25 11 42% 26 75.95 0.0
31 13:55 W 44 16.09 Fair and Windy CLR 25 11 42% 26 75.95 0.0
31 13:35 W 37 16.09 Fair and Breezy CLR 24 12 47% 25 75.97 0.0
31 13:15 W 37 G 54 16.09 Fair and Breezy CLR 24 12 47% 25 76 0.0
31 12:55 W 39 G 50 16.09 Fair and Breezy CLR 24 12 47% 25 76 0.0
31 12:35 W 43 G 56 16.09 Fair and Windy CLR 23 12 50% 76 0.0
31 12:15 W 37 16.09 Fair and Breezy CLR 23 12 50% 76.02 0.0
31 11:55 W 31 G 41 16.09 Fair CLR 22 12 53% 76.02 0.0
31 11:35 W 30 G 41 16.09 Fair CLR 22 12 53% 76.02 0.0
31 11:15 SW 24 G 41 16.09 Fair CLR 21 13 60% 76.02 0.0
31 10:55 W 35 G 44 16.09 Fair and Breezy CLR 21 13 60% 76.02 0.0
31 10:35 SW 24 G 37 16.09 Fair CLR 21 13 60% 76.02 0.0
31 09:55 SW 24 G 35 16.09 Fair CLR 19 13 68% 76 0.0
31 09:35 SW 20 G 30 16.09 Fair CLR 18 14 78% 76.02 0.0
31 09:15 SW 19 16.09 Fair CLR 17 14 83% 76.02 0.0
31 08:55 SW 17 16.09 Fair CLR 15 13 88% 76.02 0.0
31 08:35 SW 15 16.09 Fair CLR 14 13 94% 76 0.0
31 08:15 SW 19 16.09 Fair CLR 13 12 94% 76 0.0
31 07:55 SW 15 16.09 Fair CLR 12 12 100% 76 0.0
31 07:35 SW 17 16.09 Fair CLR 12 12 100% 75.97 0.0
31 07:15 SW 15 16.09 Fair CLR 11 11 100% 75.97 0.0
31 06:55 SW 17 16.09 Fair CLR 11 11 100% 75.95 0.0
31 06:35 SW 17 16.09 Fair CLR 12 12 100% 75.92 0.0
31 06:15 SW 17 16.09 Fair CLR 11 11 100% 75.92 0.0
31 05:55 SW 17 16.09 Fair CLR 11 11 100% 75.92 0.0
31 05:35 SW 20 16.09 Fair CLR 11 11 100% 75.9 0.0
31 05:15 SW 20 16.09 Fair CLR 11 11 100% 75.87 0.0
31 04:55 SW 17 16.09 Fair CLR 11 11 100% 75.87 0.0
31 04:35 SW 17 16.09 Fair CLR 11 11 100% 75.84 0.0
31 04:15 SW 13 16.09 Fair CLR 11 11 100% 75.84 0.0
31 03:55 SW 13 16.09 Fair CLR 12 12 100% 75.84 0.0
31 03:35 W 11 16.09 Fair CLR 12 12 100% 75.84 0.0
31 03:15 W 11 16.09 Fair CLR 12 12 100% 75.84 0.0
31 02:55 W 13 16.09 Fair CLR 12 12 100% 75.84 0.0
31 02:35 W 11 16.09 Fair CLR 12 12 100% 75.82 0.0
31 02:15 W 13 16.09 Fair CLR 12 12 100% 75.84 0.0
31 01:55 W 15 16.09 Fair CLR 12 12 100% 75.84 0.0
31 01:35 W 11 16.09 Fair CLR 13 13 100% 75.84 0.0
31 01:15 W 15 16.09 Fair CLR 13 13 100% 75.87 0.0
31 00:55 SW 13 16.09 Fair CLR 13 13 100% 75.84 0.0
31 00:35 W 13 16.09 Fair CLR 13 13 100% 75.82 0.0
31 00:15 W 15 16.09 Fair CLR 14 14 100% 75.79 0.0
30 23:55 W 17 16.09 Fair CLR 15 15 100% 75.79 0.0
30 23:35 W 15 16.09 Fair CLR 15 15 100% 75.79 0.0
30 23:15 W 19 16.09 Fair CLR 14 14 100% 75.79 0.0
30 22:55 W 15 16.09 A Few Clouds FEW090 FEW110 15 15 100% 75.77 0.0
30 22:35 NW 13 16.09 Mostly Cloudy FEW060 SCT075 BKN100 16 16 100% 75.74 0.0
30 22:15 SW 9 16.09 Mostly Cloudy FEW055 SCT065 BKN075 17 16 94% 75.82 0.0
30 21:55 N 7 16.09 Overcast FEW055 SCT075 OVC100 17 16 94% 75.74 0.0
30 21:35 N 13 16.09 Overcast SCT050 BKN075 OVC120 17 16 94% 75.72 0.0
30 21:15 N 20 16.09 Mostly Cloudy FEW021 BKN047 BKN070 17 17 100% 75.72 0.0
30 20:55 N 22 16.09 Mostly Cloudy FEW038 SCT050 BKN070 17 17 100% 75.72 0.0
30 20:35 NW 26 G 35 16.09 Overcast SCT036 BKN070 OVC100 17 17 100% 75.74 0.0
30 20:15 NW 39 G 56 8.05 Light Rain and Breezy FEW018 BKN029 OVC047 17 17 100% 75.74 0.0
30 19:55 NW 39 G 57 4.02 Thunderstorm in Vicinity Rain and Breezy SCT004 BKN024 OVC029 17 17 100% 75.77 0.0
30 19:35 W 59 G 80 2.01 Thunderstorm Rain and Windy SCT004 BKN024 OVC030 19 19 100% 75.69 0.0
30 19:15 S 9 16.09 A Few Clouds FEW029 FEW095 24 23 94% 23 75.54 0.0
30 18:55 SE 17 16.09 Thunderstorm in Vicinity CLR 24 23 94% 23 75.46 0.0
30 18:35 SE 19 16.09 Fair CLR 25 23 89% 26 75.46 0.0
30 18:15 SE 28 16.09 Partly Cloudy FEW026 SCT035 25 23 89% 26 75.46 0.0
30 17:55 SE 17 16.09 Partly Cloudy FEW032 SCT039 27 23 79% 30 75.46 0.0
30 17:35 E 22 16.09 Mostly Cloudy SCT030 BKN039 27 23 79% 30 75.46 0.0
30 17:15 E 24 16.09 A Few Clouds FEW030 27 23 79% 30 75.46 0.0
30 16:55 E 20 G 30 16.09 A Few Clouds FEW042 27 23 79% 30 75.46 0.0
30 16:35 SE 17 16.09 Partly Cloudy SCT041 28 23 74% 31 75.49 0.0
30 16:15 Vrbl 6 G 30 16.09 Partly Cloudy FEW031 SCT042 28 23 74% 31 75.51 0.0
30 15:55 E 17 16.09 Mostly Cloudy SCT029 BKN038 BKN044 27 23 79% 30 75.54 0.0
30 15:35 E 9 G 26 16.09 Mostly Cloudy SCT028 BKN034 BKN110 27 23 79% 30 75.54 0.0
30 15:15 E 15 16.09 Partly Cloudy FEW025 SCT031 26 22 79% 28 75.57 0.0
30 14:55 E 13 16.09 Mostly Cloudy SCT023 BKN030 26 23 84% 28 75.57 0.0
30 14:35 SE 11 16.09 Partly Cloudy SCT022 SCT027 26 23 84% 28 75.57 0.0
30 14:15 E 13 16.09 Mostly Cloudy BKN020 BKN027 25 23 89% 26 75.59 0.0
30 13:55 E 13 16.09 Overcast OVC018 25 23 89% 26 75.59 0.0
30 13:35 E 17 16.09 Overcast OVC018 24 23 94% 23 75.62 0.0
30 13:15 E 13 16.09 Overcast BKN015 OVC019 24 23 94% 23 75.64 0.0
30 12:55 E 11 16.09 Overcast OVC015 23 23 100% 75.67 0.0
30 12:35 E 9 16.09 Overcast BKN014 OVC018 23 23 100% 75.69 0.0
30 12:15 SE 7 16.09 Overcast OVC013 23 23 100% 75.67 0.0
30 11:55 SE 11 16.09 Overcast OVC012 23 23 100% 75.67 0.0
30 11:35 E 11 16.09 Overcast BKN008 OVC012 22 22 100% 75.67 0.0
30 11:15 SE 13 16.09 Mostly Cloudy BKN008 22 22 100% 75.67 0.0
30 10:55 E 11 16.09 Overcast OVC006 22 22 100% 75.67 0.0
30 10:35 E 9 11.27 Overcast OVC004 21 21 100% 75.67 0.0
30 10:15 E 11 9.66 Fog/Mist OVC004 21 21 100% 75.67 0.0
30 09:55 Calm 12.87 Overcast OVC004 20 20 100% 75.67 0.0
30 09:35 E 7 16.09 Overcast OVC004 20 20 100% 75.69 0.0
30 09:15 E 11 16.09 Overcast OVC004 20 20 100% 75.67 0.0
30 08:55 E 13 12.87 Overcast OVC004 20 20 100% 75.67 0.0
30 08:35 E 11 6.44 Fog/Mist OVC003 20 20 100% 75.69 0.0
30 08:15 E 17 6.44 Fog/Mist OVC003 20 20 100% 75.69 0.0
30 07:55 E 17 6.44 Fog/Mist OVC003 20 20 100% 75.69 0.0
30 07:35 E 11 9.66 Fog/Mist OVC004 20 20 100% 75.67 0.0
30 07:15 NE 11 14.48 Overcast OVC004 19 19 100% 75.67 0.0
30 06:55 NE 11 16.09 Mostly Cloudy BKN005 19 19 100% 75.64 0.0
30 06:35 NE 11 16.09 Partly Cloudy SCT006 SCT009 SCT019 19 19 100% 75.64 0.0
30 05:55 E 11 14.48 Overcast BKN004 OVC008 20 20 100% 75.62 0.0
30 05:15 NE 9 1.21 Fog/Mist OVC002 20 20 100% 75.59 0.0
30 04:55 Calm 8.05 Fog/Mist SCT006 BKN009 20 20 100% 75.59 0.0
30 04:35 N 7 9.66 Fog/Mist FEW003 FEW009 20 20 100% 75.59 0.0
30 04:15 N 11 9.66 Fog/Mist FEW003 SCT120 20 20 100% 75.59 0.0
30 03:35 SE 20 12.87 Overcast SCT006 BKN100 OVC120 21 21 100% 75.59 0.0
30 03:15 Calm 11.27 Light Rain OVC007 21 21 100% 75.67 0.0
30 02:55 W 7 8.05 Thunderstorm in Vicinity Rain BKN009 BKN017 OVC042 21 21 100% 75.67 0.0
30 02:35 Calm 9.66 Thunderstorm in Vicinity Rain BKN004 BKN016 OVC042 21 21 100% 75.72 0.0
30 02:15 SE 9 11.27 Overcast SCT005 OVC024 21 21 100% 75.69 0.0
30 01:55 SE 13 16.09 Overcast SCT024 BKN045 OVC120 21 21 100% 75.72 0.0
30 01:35 E 13 16.09 Mostly Cloudy BKN120 21 21 100% 75.69 0.0
30 01:15 E 17 16.09 A Few Clouds FEW120 21 21 100% 75.67 0.0
30 00:55 E 15 16.09 A Few Clouds FEW035 FEW041 21 21 100% 75.64 0.0
30 00:35 E 15 16.09 Mostly Cloudy FEW013 SCT029 BKN036 21 21 100% 75.69 0.0
30 00:15 E 17 16.09 Overcast FEW018 BKN028 OVC034 21 21 100% 75.69 0.0
29 23:35 E 11 16.09 Fair CLR 21 21 100% 75.69 0.0
29 23:15 NE 13 16.09 Fair CLR 21 21 100% 75.69 0.0
29 22:55 E 11 16.09 Fair CLR 22 22 100% 75.69 0.0
29 22:35 E 13 16.09 Fair CLR 22 22 100% 75.72 0.0
29 22:15 E 15 16.09 Fair CLR 23 23 100% 75.72 0.0
29 21:55 E 19 16.09 Fair CLR 23 23 100% 75.72 0.0
29 21:35 E 19 16.09 Fair CLR 23 23 100% 75.69 0.0
29 21:15 E 17 16.09 Fair CLR 24 23 94% 23 75.67 0.0
29 20:55 E 15 16.09 Fair CLR 24 22 89% 24 75.67 0.0
29 20:35 E 15 16.09 Fair CLR 25 22 83% 26 75.64 0.0
29 20:15 E 15 16.09 Fair CLR 25 22 83% 26 75.64 0.0
29 19:55 E 13 16.09 Fair CLR 26 22 79% 28 75.62 0.0
29 19:35 E 11 16.09 Fair CLR 27 22 74% 29 75.62 0.0
29 19:15 SE 13 16.09 Fair CLR 28 22 70% 31 75.62 0.0
29 18:55 SE 15 16.09 Fair CLR 29 22 66% 32 75.64 0.0
29 18:35 SE 11 16.09 Fair CLR 29 22 66% 32 75.64 0.0
29 18:15 SE 11 16.09 Fair CLR 29 23 70% 33 75.64 0.0
Date Time (cdt) Wind (kph) Vis. (km) Weather Sky Cond. Air Dwpt Max. Min. Relative Humidity Wind Chill (°C) Heat Index (°C) altimeter (cm) sea level (mb) 1 hr 3 hr 6 hr
6 hour
Temperature (ºC) Pressure Precipitation (cm)